Total_Precipitation_Accumulation
0.12 0.11 0.11 0.12 0.10 0.07 0.04 0.06 0.21 0.42 0.34 0.32 0.20 0.16 0.30 0.38 0.39 0.46 0.32 0.13 0.17 0.25 0.10 0.10 0.22 0.22 0.11 0.15 0.17 0.21 0.25 0.15 0.12 0.10 0.07 0.05 0.02 0.01 0.02 0.01 0.02 0.13 0.24 0.19 0.22 0.28 0.14 0.00 0.00 0.01 0.00 0.00 0.00 0.00
0.06 0.08 0.04 0.01 0.00 0.00 0.00 0.01 0.07 0.15 0.58 0.43 0.20 0.14 0.38 0.47 0.36 0.44 0.31 0.19 0.16 0.22 0.16 0.09 0.08 0.13 0.08 0.08 0.13 0.14 0.11 0.10 0.08 0.08 0.05 0.06 0.04 0.03 0.02 0.01 0.01 0.02 0.03 0.08 0.17 0.16 0.04 0.00 0.00 0.00 0.00 0.00 0.00 0.00
0.01 0.01 0.00 0.00 0.00 0.00 0.00 0.00 0.01 0.06 0.24 0.47 0.31 0.24 0.51 0.51 0.37 0.39 0.25 0.16 0.23 0.34 0.20 0.14 0.11 0.03 0.04 0.12 0.07 0.16 0.14 0.09 0.10 0.14 0.22 0.20 0.15 0.07 0.06 0.03 0.04 0.01 0.01 0.02 0.04 0.00 0.00 0.00 0.00 0.00 0.00 0.00 0.00 0.00
0.00 0.00 0.00 0.00 0.00 0.00 0.00 0.00 0.01 0.13 0.17 0.43 0.62 0.49 0.50 0.37 0.41 0.38 0.30 0.19 0.22 0.29 0.24 0.08 0.01 0.00 0.04 0.10 0.03 0.04 0.07 0.06 0.08 0.12 0.16 0.20 0.17 0.15 0.16 0.12 0.11 0.11 0.12 0.16 0.14 0.05 0.03 0.01 0.01 0.02 0.02 0.00 0.00 0.00
0.00 0.00 0.00 0.00 0.00 0.00 0.00 0.00 0.01 0.03 0.11 0.40 0.60 0.49 0.38 0.39 0.40 0.39 0.35 0.28 0.17 0.14 0.12 0.04 0.01 0.00 0.00 0.00 0.01 0.01 0.01 0.04 0.06 0.08 0.07 0.05 0.07 0.10 0.12 0.11 0.04 0.01 0.04 0.07 0.09 0.12 0.09 0.11 0.07 0.06 0.07 0.02 0.01 0.00
0.00 0.00 0.00 0.00 0.00 0.00 0.00 0.00 0.01 0.02 0.11 0.28 0.34 0.15 0.22 0.33 0.33 0.32 0.26 0.11 0.04 0.03 0.02 0.02 0.05 0.01 0.01 0.00 0.00 0.01 0.01 0.04 0.07 0.06 0.07 0.09 0.17 0.23 0.17 0.08 0.04 0.02 0.02 0.04 0.06 0.05 0.03 0.02 0.01 0.01 0.03 0.03 0.02 0.00
0.00 0.00 0.00 0.00 0.00 0.00 0.00 0.00 0.01 0.05 0.07 0.08 0.09 0.04 0.04 0.04 0.10 0.06 0.06 0.04 0.00 0.03 0.06 0.11 0.13 0.05 0.03 0.05 0.07 0.06 0.10 0.11 0.11 0.15 0.16 0.16 0.19 0.15 0.11 0.05 0.03 0.01 0.01 0.01 0.00 0.00 0.00 0.00 0.00 0.00 0.00 0.00 0.00 0.00
0.05 0.06 0.05 0.02 0.01 0.00 0.00 0.00 0.01 0.07 0.07 0.02 0.06 0.03 0.04 0.06 0.08 0.04 0.04 0.04 0.02 0.03 0.06 0.09 0.12 0.26 0.17 0.15 0.18 0.14 0.18 0.23 0.20 0.15 0.11 0.09 0.12 0.20 0.16 0.03 0.01 0.01 0.00 0.01 0.00 0.00 0.00 0.00 0.00 0.00 0.00 0.00 0.00 0.00
0.31 0.09 0.03 0.02 0.01 0.01 0.00 0.00 0.01 0.06 0.04 0.07 0.09 0.10 0.14 0.11 0.04 0.04 0.01 0.22 0.20 0.10 0.16 0.07 0.12 0.44 0.40 0.22 0.16 0.12 0.12 0.24 0.20 0.08 0.05 0.09 0.12 0.14 0.03 0.04 0.03 0.02 0.02 0.01 0.00 0.00 0.00 0.00 0.00 0.00 0.00 0.00 0.00 0.00
0.06 0.05 0.02 0.01 0.01 0.01 0.01 0.00 0.02 0.05 0.12 0.09 0.08 0.11 0.11 0.04 0.06 0.07 0.10 0.36 0.52 0.33 0.22 0.10 0.11 0.36 0.41 0.24 0.14 0.11 0.10 0.13 0.11 0.05 0.04 0.10 0.07 0.02 0.01 0.03 0.04 0.00 0.00 0.00 0.00 0.00 0.00 0.00 0.00 0.00 0.00 0.00 0.00 0.00
0.02 0.02 0.02 0.01 0.01 0.01 0.01 0.00 0.10 0.33 0.14 0.11 0.18 0.29 0.20 0.07 0.14 0.23 0.29 0.20 0.16 0.30 0.11 0.03 0.05 0.29 0.24 0.26 0.13 0.10 0.14 0.10 0.13 0.08 0.04 0.06 0.03 0.04 0.01 0.01 0.01 0.00 0.00 0.00 0.00 0.00 0.00 0.00 0.00 0.00 0.00 0.00 0.00 0.00
0.04 0.04 0.03 0.02 0.02 0.01 0.00 0.04 0.26 0.10 0.10 0.12 0.17 0.16 0.15 0.14 0.23 0.20 0.19 0.11 0.09 0.18 0.06 0.04 0.06 0.25 0.19 0.17 0.18 0.10 0.14 0.14 0.15 0.14 0.06 0.09 0.05 0.01 0.01 0.00 0.00 0.00 0.00 0.00 0.00 0.00 0.00 0.00 0.00 0.00 0.00 0.00 0.00 0.00
0.04 0.04 0.03 0.02 0.01 0.01 0.01 0.05 0.06 0.08 0.07 0.15 0.21 0.12 0.18 0.09 0.20 0.06 0.03 0.02 0.13 0.14 0.05 0.06 0.15 0.15 0.20 0.26 0.27 0.17 0.04 0.12 0.07 0.24 0.10 0.05 0.01 0.00 0.00 0.00 0.00 0.00 0.00 0.00 0.00 0.00 0.00 0.00 0.00 0.00 0.00 0.00 0.00 0.01
0.01 0.02 0.02 0.01 0.01 0.02 0.04 0.07 0.11 0.07 0.17 0.28 0.21 0.17 0.18 0.10 0.04 0.04 0.09 0.20 0.07 0.13 0.09 0.12 0.11 0.20 0.18 0.07 0.07 0.03 0.01 0.01 0.01 0.01 0.02 0.01 0.00 0.00 0.00 0.00 0.00 0.00 0.00 0.00 0.00 0.00 0.00 0.00 0.00 0.00 0.00 0.00 0.01 0.02
0.02 0.05 0.08 0.08 0.07 0.05 0.03 0.08 0.08 0.19 0.26 0.27 0.10 0.07 0.02 0.04 0.01 0.00 0.01 0.00 0.00 0.06 0.14 0.08 0.04 0.04 0.01 0.00 0.00 0.00 0.00 0.00 0.00 0.01 0.02 0.00 0.00 0.00 0.00 0.00 0.00 0.00 0.00 0.00 0.00 0.00 0.00 0.00 0.00 0.01 0.01 0.02 0.02 0.04
0.02 0.03 0.06 0.06 0.04 0.03 0.02 0.06 0.14 0.25 0.17 0.04 0.01 0.02 0.02 0.06 0.04 0.01 0.01 0.00 0.00 0.06 0.10 0.03 0.00 0.01 0.00 0.00 0.00 0.00 0.00 0.00 0.01 0.01 0.01 0.01 0.01 0.00 0.00 0.00 0.00 0.00 0.00 0.00 0.00 0.00 0.00 0.00 0.00 0.01 0.02 0.02 0.03 0.03
0.01 0.01 0.00 0.00 0.00 0.00 0.03 0.17 0.16 0.07 0.02 0.01 0.02 0.02 0.01 0.07 0.04 0.01 0.00 0.01 0.01 0.08 0.04 0.00 0.00 0.00 0.00 0.00 0.00 0.00 0.01 0.01 0.01 0.02 0.01 0.01 0.01 0.00 0.00 0.00 0.00 0.00 0.00 0.00 0.00 0.00 0.00 0.01 0.01 0.01 0.01 0.02 0.03 0.05
0.01 0.00 0.00 0.00 0.00 0.01 0.02 0.03 0.04 0.00 0.00 0.01 0.04 0.03 0.02 0.02 0.02 0.00 0.00 0.01 0.07 0.08 0.02 0.01 0.00 0.00 0.00 0.00 0.01 0.00 0.01 0.01 0.02 0.01 0.01 0.01 0.01 0.01 0.01 0.00 0.00 0.00 0.00 0.00 0.00 0.00 0.00 0.01 0.01 0.00 0.01 0.01 0.02 0.04
0.00 0.00 0.00 0.00 0.00 0.03 0.03 0.00 0.01 0.01 0.00 0.00 0.02 0.02 0.01 0.02 0.01 0.00 0.00 0.01 0.04 0.02 0.01 0.00 0.00 0.00 0.00 0.00 0.01 0.01 0.00 0.01 0.01 0.01 0.02 0.01 0.01 0.01 0.02 0.01 0.00 0.00 0.00 0.00 0.00 0.00 0.00 0.00 0.01 0.00 0.00 0.00 0.01 0.02
0.00 0.00 0.00 0.00 0.00 0.01 0.00 0.00 0.00 0.01 0.00 0.01 0.01 0.00 0.01 0.01 0.00 0.00 0.00 0.01 0.01 0.00 0.00 0.00 0.00 0.00 0.00 0.01 0.00 0.01 0.01 0.01 0.00 0.01 0.01 0.02 0.02 0.01 0.01 0.01 0.00 0.00 0.00 0.00 0.00 0.00 0.00 0.00 0.01 0.00 0.01 0.01 0.01 0.01
0.00 0.00 0.00 0.00 0.00 0.01 0.00 0.00 0.00 0.00 0.00 0.00 0.00 0.00 0.01 0.00 0.01 0.01 0.01 0.00 0.01 0.01 0.01 0.00 0.00 0.00 0.00 0.00 0.00 0.00 0.00 0.00 0.00 0.00 0.01 0.01 0.01 0.01 0.01 0.01 0.00 0.00 0.00 0.00 0.01 0.00 0.00 0.00 0.00 0.01 0.01 0.02 0.03 0.03
0.00 0.00 0.00 0.00 0.00 0.00 0.00 0.00 0.00 0.00 0.00 0.00 0.00 0.00 0.01 0.01 0.01 0.01 0.00 0.00 0.01 0.00 0.00 0.00 0.00 0.00 0.00 0.00 0.00 0.00 0.00 0.00 0.00 0.00 0.00 0.00 0.01 0.00 0.00 0.00 0.00 0.00 0.00 0.00 0.00 0.01 0.00 0.01 0.01 0.01 0.03 0.05 0.05 0.05
0.00 0.00 0.00 0.00 0.00 0.00 0.00 0.00 0.00 0.00 0.00 0.00 0.00 0.00 0.00 0.01 0.00 0.00 0.00 0.00 0.00 0.00 0.00 0.00 0.00 0.00 0.00 0.00 0.00 0.00 0.00 0.00 0.00 0.00 0.00 0.00 0.00 0.00 0.00 0.00 0.00 0.01 0.01 0.00 0.00 0.01 0.01 0.01 0.01 0.02 0.04 0.06 0.07 0.08
0.00 0.00 0.00 0.00 0.00 0.00 0.00 0.00 0.00 0.00 0.00 0.00 0.00 0.00 0.00 0.00 0.00 0.00 0.00 0.00 0.00 0.00 0.00 0.00 0.00 0.01 0.01 0.00 0.00 0.00 0.00 0.00 0.00 0.00 0.00 0.00 0.00 0.00 0.00 0.00 0.00 0.00 0.00 0.00 0.00 0.01 0.01 0.02 0.01 0.03 0.04 0.04 0.06 0.06
0.00 0.00 0.00 0.00 0.00 0.00 0.00 0.00 0.00 0.00 0.00 0.00 0.00 0.00 0.00 0.00 0.01 0.00 0.00 0.00 0.00 0.01 0.00 0.00 0.00 0.01 0.01 0.01 0.01 0.01 0.00 0.00 0.00 0.00 0.00 0.00 0.00 0.00 0.00 0.00 0.00 0.00 0.00 0.01 0.01 0.02 0.02 0.02 0.02 0.03 0.03 0.04 0.04 0.04
0.00 0.00 0.00 0.00 0.00 0.00 0.00 0.01 0.01 0.00 0.01 0.01 0.01 0.01 0.00 0.01 0.00 0.00 0.00 0.01 0.01 0.01 0.01 0.01 0.01 0.01 0.01 0.01 0.01 0.01 0.00 0.00 0.00 0.00 0.00 0.00 0.00 0.00 0.00 0.00 0.00 0.00 0.00 0.00 0.01 0.01 0.01 0.01 0.02 0.02 0.03 0.04 0.04 0.04
0.00 0.00 0.00 0.00 0.00 0.00 0.00 0.01 0.01 0.01 0.01 0.01 0.02 0.01 0.01 0.01 0.00 0.00 0.00 0.00 0.01 0.01 0.01 0.00 0.01 0.01 0.01 0.01 0.00 0.00 0.00 0.00 0.00 0.00 0.00 0.00 0.00 0.00 0.00 0.00 0.00 0.00 0.00 0.00 0.00 0.00 0.01 0.01 0.01 0.02 0.03 0.04 0.03 0.03
0.00 0.00 0.00 0.00 0.00 0.00 0.01 0.01 0.01 0.01 0.01 0.01 0.01 0.01 0.01 0.00 0.00 0.00 0.00 0.00 0.00 0.00 0.00 0.01 0.00 0.00 0.00 0.01 0.00 0.00 0.00 0.01 0.01 0.00 0.00 0.01 0.00 0.00 0.00 0.00 0.00 0.00 0.00 0.00 0.00 0.00 0.00 0.00 0.01 0.02 0.02 0.03 0.03 0.04
0.00 0.00 0.00 0.00 0.00 0.00 0.00 0.00 0.01 0.01 0.00 0.00 0.01 0.01 0.01 0.00 0.00 0.00 0.00 0.00 0.00 0.00 0.00 0.01 0.01 0.01 0.01 0.01 0.01 0.00 0.01 0.01 0.01 0.02 0.01 0.02 0.01 0.01 0.00 0.00 0.00 0.00 0.00 0.00 0.00 0.00 0.00 0.00 0.01 0.01 0.02 0.03 0.03 0.06
0.01 0.00 0.00 0.00 0.00 0.00 0.01 0.01 0.01 0.01 0.00 0.01 0.01 0.00 0.00 0.00 0.01 0.00 0.00 0.00 0.00 0.00 0.01 0.01 0.01 0.01 0.01 0.01 0.02 0.02 0.01 0.00 0.01 0.01 0.01 0.01 0.01 0.00 0.00 0.00 0.01 0.00 0.00 0.01 0.00 0.01 0.01 0.01 0.02 0.03 0.04 0.04 0.05 0.06
0.01 0.01 0.01 0.01 0.01 0.01 0.01 0.00 0.00 0.01 0.01 0.01 0.02 0.02 0.01 0.02 0.01 0.00 0.00 0.00 0.01 0.01 0.01 0.01 0.02 0.02 0.01 0.01 0.02 0.01 0.01 0.01 0.00 0.00 0.00 0.00 0.00 0.01 0.00 0.00 0.01 0.01 0.01 0.01 0.01 0.01 0.01 0.01 0.01 0.02 0.02 0.01 0.01 0.01
0.01 0.01 0.01 0.01 0.02 0.02 0.01 0.01 0.01 0.01 0.01 0.02 0.01 0.02 0.03 0.04 0.02 0.01 0.00 0.00 0.01 0.01 0.01 0.01 0.01 0.01 0.00 0.01 0.00 0.00 0.00 0.00 0.00 0.00 0.00 0.00 0.00 0.00 0.00 0.01 0.01 0.01 0.01 0.01 0.01 0.01 0.01 0.01 0.01 0.01 0.01 0.01 0.01 0.02
0.01 0.02 0.01 0.01 0.01 0.01 0.02 0.01 0.01 0.01 0.01 0.01 0.01 0.01 0.02 0.04 0.03 0.01 0.00 0.00 0.00 0.01 0.01 0.00 0.01 0.01 0.00 0.00 0.00 0.00 0.00 0.00 0.00 0.00 0.00 0.00 0.01 0.01 0.01 0.01 0.01 0.02 0.02 0.02 0.02 0.02 0.02 0.02 0.02 0.02 0.02 0.02 0.03 0.03